AU224 Weather Reports


Display with metric or nautical units.
time (UTC)temp
F
wind
direction
speed
MPH
gust
MPH
rain 1hr
in
rain 24hr
in
rain mn
in
humidity
%
barometer
mb
20260831063101 61 0 2.0 10.0 0.00 0.12 0.12 83 1014.7
20260831061558 61 168 0.0 8.0 0.00 0.12 0.12 84 1014.7
20260831060105 60 0 0.0 3.0 0.00 0.12 0.12 85 1014.6
20260831054555 60 0 0.0 5.0 0.00 0.12 0.12 85 1014.5
20260831053107 60 0 0.0 4.0 0.00 0.12 0.12 86 1014.5
20260831051556 59 0 0.0 6.0 0.00 0.12 0.12 85 1014.5
20260831050124 59 0 0.0 5.0 0.00 0.12 0.12 85 1014.3
20260831044552 59 0 1.0 8.0 0.00 0.12 0.12 85 1014.3
20260831043100 59 0 0.0 4.0 0.00 0.12 0.12 85 1014.2
20260831041617 59 134 0.0 5.0 0.00 0.12 0.12 84 1014.1
20260831040050 59 0 1.0 7.0 0.00 0.12 0.12 84 1014.1
20260831034556 60 185 0.0 6.0 0.00 0.12 0.12 84 1014.0
20260831033110 60 0 0.0 6.0 0.02 0.12 0.12 83 1014.1
20260831031554 60 174 0.0 3.0 0.10 0.12 0.12 83 1014.2
20260831030056 60 0 0.0 4.0 0.12 0.12 0.12 83 1014.3
20260831024559 61 0 0.0 12.0 0.11 0.11 0.11 82 1014.1
20260831023053 61 360 8.0 21.0 0.10 0.10 0.10 81 1014.6
20260831021549 62 272 2.0 0.0 0.01 0.01 0.01 79 1015.0
20260831014603 61 0 0.0 1.0 0.00 0.00 0.00 79 1011.7
20260831013059 62 0 0.0 0.0 0.00 0.00 0.00 79 1011.5
20260831011552 62 0 0.0 0.0 0.00 0.00 0.00 79 1011.7
20260831010106 62 0 0.0 0.0 0.00 0.00 0.00 79 1011.8
20260831004555 62 0 0.0 2.0 0.00 0.00 0.00 78 1012.0
20260831003101 62 0 0.0 0.0 0.00 0.00 0.00 77 1012.2
20260831001544 62 0 0.0 0.0 0.00 0.00 0.00 76 1012.3
20260831000055 62 0 0.0 0.0 0.00 0.00 0.00 75 1012.3
20260830234559 63 0 0.0 0.0 0.00 0.00 0.00 74 1012.3
20260830233056 63 0 0.0 0.0 0.00 0.00 0.00 74 1012.5
20260830231602 63 0 0.0 0.0 0.00 0.00 0.00 74 1012.6
20260830230053 64 0 0.0 0.0 0.00 0.00 0.00 74 1012.9
20260830224557 64 0 0.0 0.0 0.00 0.00 0.00 73 1012.8
20260830223055 64 0 0.0 0.0 0.00 0.00 0.00 73 1013.0
20260830221553 64 0 0.0 0.0 0.00 0.00 0.00 73 1013.1
20260830220059 65 0 0.0 0.0 0.00 0.00 0.00 73 1013.2
20260830214550 65 0 0.0 0.0 0.00 0.00 0.00 72 1013.2
20260830213059 65 0 0.0 0.0 0.00 0.00 0.00 72 1013.2
20260830211555 65 0 0.0 0.0 0.00 0.00 0.00 71 1013.4
20260830210105 65 0 0.0 0.0 0.00 0.00 0.00 71 1013.3
20260830204611 65 0 0.0 0.0 0.00 0.00 0.00 70 1013.3
20260830203058 66 0 0.0 0.0 0.00 0.00 0.00 69 1013.4
20260830201557 66 0 0.0 0.0 0.00 0.00 0.00 69 1013.4
20260830200108 66 0 0.0 1.0 0.00 0.00 0.00 69 1013.5
20260830194615 67 0 0.0 0.0 0.00 0.00 0.00 67 1013.5
20260830193058 68 0 0.0 0.0 0.00 0.00 0.00 66 1013.4
20260830191558 68 0 0.0 0.0 0.00 0.00 0.00 65 1013.5
20260830190049 69 0 0.0 0.0 0.00 0.00 0.00 63 1013.4
20260830184557 70 0 0.0 0.0 0.00 0.00 0.00 62 1013.5
20260830183114 71 0 0.0 0.0 0.00 0.00 0.00 60 1013.3
20260830181556 72 0 0.0 0.0 0.00 0.00 0.00 59 1013.2
20260830180105 73 0 0.0 0.0 0.00 0.00 0.00 58 1013.2
20260830174556 73 0 0.0 1.0 0.00 0.00 0.00 56 1013.0
20260830173115 74 0 0.0 4.0 0.00 0.00 0.00 55 1013.0
20260830171557 74 0 0.0 3.0 0.00 0.00 0.00 54 1013.0
20260830170057 75 253 0.0 5.0 0.00 0.00 0.00 53 1013.0
20260830164556 75 360 2.0 0.0 0.00 0.00 0.00 53 1012.9
20260830163055 75 360 3.0 10.0 0.00 0.00 0.00 52 1013.0
20260830161623 76 272 1.0 10.0 0.00 0.00 0.00 52 1012.9
20260830160052 77 142 1.0 13.0 0.00 0.00 0.00 50 1012.9
20260830154603 77 242 2.0 10.0 0.00 0.00 0.00 50 1012.9
20260830153100 77 196 0.0 9.0 0.00 0.00 0.00 50 1013.0
20260830151557 77 360 3.0 11.0 0.00 0.00 0.00 51 1013.2
20260830150109 77 360 5.0 12.0 0.00 0.00 0.00 52 1013.2
20260830144551 77 360 7.0 14.0 0.00 0.00 0.00 52 1013.1
20260830143057 78 360 2.0 4.0 0.00 0.00 0.00 51 1013.2
20260830141553 78 167 2.0 12.0 0.00 0.00 0.00 53 1013.3
20260830140054 78 0 1.0 13.0 0.00 0.00 0.00 52 1013.3
20260830134558 77 296 4.0 12.0 0.00 0.00 0.00 52 1013.3
20260830133058 78 0 1.0 11.0 0.00 0.00 0.00 51 1013.4
20260830131607 79 294 9.0 15.0 0.00 0.00 0.00 49 1013.5
20260830130053 78 275 4.0 0.0 0.00 0.00 0.00 51 1013.5
20260830124543 78 284 7.0 0.0 0.00 0.00 0.00 50 1013.6
20260830123058 78 323 7.0 16.0 0.00 0.00 0.00 52 1013.6
20260830121552 76 0 5.0 14.0 0.00 0.00 0.00 53 1013.8
20260830120058 77 0 0.0 10.0 0.00 0.00 0.00 51 1013.9
20260830114554 78 275 11.0 0.0 0.00 0.00 0.00 50 1013.9
20260830113058 77 360 3.0 12.0 0.00 0.00 0.00 52 1013.9
20260830111556 77 360 5.0 11.0 0.00 0.00 0.00 51 1014.1
20260830110059 76 280 4.0 15.0 0.00 0.00 0.00 51 1014.2
20260830104603 76 248 8.0 0.0 0.00 0.00 0.00 51 1014.3
20260830103100 76 279 4.0 14.0 0.00 0.00 0.00 52 1014.4
20260830101554 75 360 2.0 13.0 0.00 0.00 0.00 52 1014.6
20260830100057 75 217 5.0 13.0 0.00 0.00 0.00 51 1014.6
20260830094545 75 235 3.0 11.0 0.00 0.00 0.00 53 1014.6
20260830093054 74 360 8.0 15.0 0.00 0.00 0.00 54 1014.7
20260830091602 74 360 3.0 9.0 0.00 0.00 0.00 57 1014.8
20260830090056 73 270 6.0 0.0 0.00 0.00 0.00 56 1015.0
20260830084556 72 0 1.0 14.0 0.00 0.00 0.00 60 1014.9
20260830083054 71 296 5.0 13.0 0.00 0.00 0.00 61 1015.0
20260830081559 71 276 3.0 13.0 0.00 0.00 0.00 62 1015.0
20260830080059 70 278 3.0 12.0 0.00 0.00 0.00 62 1015.0
20260830074603 70 360 6.0 11.0 0.00 0.00 0.00 62 1015.0
20260830073112 69 360 1.0 10.0 0.00 0.00 0.00 63 1015.0
20260830071602 68 0 0.0 9.0 0.00 0.00 0.00 64 1014.9
20260830070059 68 276 1.0 9.0 0.00 0.00 0.00 64 1014.9
20260830064600 67 0 0.0 6.0 0.00 0.00 0.00 67 1014.8